Meadville, PA

6:57 AM EDT on March 27, 2017 (GMT -0400)
Port Meadville

Weather History for KGKJ - November, 2011

Change the Weather History Date:

Friday, November 25, 2011

  Actual Average Record
Temperature  
Mean Temperature 47 °F -  
Max Temperature 57 °F 43 °F 61 °F (2001)
Min Temperature 37 °F 28 °F 10 °F (1970)
Degree Days  
Heating Degree Days 18    
Moisture  
Dew Point 35 °F    
Average Humidity 72    
Maximum Humidity 93    
Minimum Humidity 40    
Precipitation  
Precipitation 0.00 in - - ()
Sea Level Pressure  
Sea Level Pressure 30.17 in    
Wind  
Wind Speed 11 mph (SSW)    
Max Wind Speed 15 mph    
Max Gust Speed 22 mph    
Visibility 8 miles    
Events      
Averages and records for this station are not official NWS values.
T = Trace of Precipitation, MM = Missing Value Source: NWS Daily Summary

Daily Weather History Graph

Daily Weather History Graph

Search for Another Location

Airport or City:

Trip Planner

Search our weather history database for the weather conditions in past years. The results will help you decide how hot, cold, wet, or windy it might be!

Date:

Astronomy

Nov. 25, 2011 Rise Set
Actual Time 7:21 AM EST 4:53 PM EST
Civil Twilight 6:50 AM EST 5:24 PM EST
Nautical Twilight 6:16 AM EST 5:58 PM EST
Astronomical Twilight 5:43 AM EST 6:31 PM EST
Moon 7:48 AM EST (11/25) 5:19 PM EST (11/25)
Length of Visible Light 10h 33m
Length of Day
9h 32m
New Moon, 0% of the Moon is Illuminated
Nov 25
New Moon
Dec 2
First Quarter
Dec 10
Full
Dec 17
Last Quarter
Dec 24
New

Hourly Weather History & Observations

Time (EST) Temp. Windchill Dew Point Humidity Pressure Visibility Wind Dir Wind Speed Gust Speed Precip Events Conditions
12:06 AM 37.4 °F 30.3 °F 35.6 °F 93% 30.20 in 7.0 mi SSW 10.4 mph - N/A   Mostly Cloudy
12:29 AM 37.4 °F 30.3 °F 35.6 °F 93% 30.20 in 7.0 mi South 10.4 mph - N/A   Mostly Cloudy
12:53 AM 37.9 °F 30.0 °F 35.1 °F 89% 30.22 in 8.0 mi South 12.7 mph - N/A   Mostly Cloudy
1:10 AM 39.2 °F 32.0 °F 35.6 °F 87% 30.19 in 7.0 mi South 11.5 mph - N/A   Scattered Clouds
1:24 AM 37.4 °F 29.8 °F 35.6 °F 93% 30.19 in 7.0 mi South 11.5 mph 20.7 mph N/A   Partly Cloudy
1:53 AM 39.0 °F 31.4 °F 36.0 °F 89% 30.22 in 8.0 mi SSW 12.7 mph - N/A   Partly Cloudy
3:16 AM 39.2 °F 33.0 °F 35.6 °F 87% 30.19 in 7.0 mi South 9.2 mph 16.1 mph N/A   Partly Cloudy
3:53 AM 39.0 °F 31.8 °F 36.0 °F 89% 30.20 in 8.0 mi South 11.5 mph - N/A   Clear
4:53 AM 37.9 °F 31.5 °F 36.0 °F 93% 30.21 in 5.0 mi South 9.2 mph - N/A   Clear
5:53 AM 37.0 °F 31.6 °F 35.1 °F 93% 30.21 in 5.0 mi South 6.9 mph - N/A   Clear
6:53 AM 37.0 °F 31.0 °F 35.1 °F 93% 30.21 in 5.0 mi South 8.1 mph - N/A   Clear
7:53 AM 37.9 °F 30.9 °F 35.1 °F 89% 30.21 in 5.0 mi South 10.4 mph - N/A   Clear
8:53 AM 39.9 °F 32.9 °F 36.0 °F 86% 30.21 in 8.0 mi South 11.5 mph - N/A   Clear
9:53 AM 45.0 °F 39.7 °F 37.9 °F 76% 30.21 in 10.0 mi South 10.4 mph - N/A   Clear
11:53 AM 52.0 °F - 37.9 °F 59% 30.17 in 10.0 mi South 9.2 mph 19.6 mph N/A   Clear
12:53 PM 54.0 °F - 36.0 °F 51% 30.14 in 10.0 mi SSW 13.8 mph 21.9 mph N/A   Clear
1:53 PM 57.0 °F - 35.1 °F 44% 30.12 in 10.0 mi SSW 15.0 mph 20.7 mph N/A   Clear
2:53 PM 57.0 °F - 33.1 °F 40% 30.10 in 10.0 mi SSW 12.7 mph 20.7 mph N/A   Clear
3:53 PM 55.9 °F - 34.0 °F 44% 30.10 in 10.0 mi SSW 11.5 mph 18.4 mph N/A   Clear
4:53 PM 53.1 °F - 33.1 °F 47% 30.10 in 10.0 mi SSW 9.2 mph - N/A   Clear
5:53 PM 51.1 °F - 33.1 °F 50% 30.11 in 10.0 mi SSW 9.2 mph - N/A   Clear
6:53 PM 48.9 °F - 32.0 °F 52% 30.12 in 10.0 mi SSW 9.2 mph - N/A   Clear
7:53 PM 48.0 °F - 33.1 °F 56% 30.12 in 10.0 mi South 9.2 mph - N/A   Clear
8:53 PM 48.0 °F - 34.0 °F 58% 30.12 in 10.0 mi SSW 10.4 mph - N/A   Clear
9:53 PM 48.0 °F - 34.0 °F 58% 30.12 in 10.0 mi SSW 8.1 mph - N/A   Clear
10:53 PM 46.9 °F - 34.0 °F 61% 30.12 in 10.0 mi South 5.8 mph - N/A   Clear